Simultaneous Nadir Overpasses (SNOs) Predictions

Prediction of SNOs near US between AQUA and NPP Satellite Orbit:

Table of predicted SNOs near US for the next 10.0 days since TLE Epoch: 1/25/2014
Index Date (AQUA) Time (AQUA) AQUA Lat,Lon Date (NPP) Time (NPP) NPP Lat,Lon Distance(km) Time Diff (sec)
1 01/27/2014 07:19:16 49.91, -76.01 01/27/2014 07:23:09 50.34, -78.16 160.33 233
2 01/27/2014 08:58:09 49.92,-100.73 01/27/2014 09:04:37 50.45,-103.48 204.78 388
3 01/29/2014 18:17:27 49.99, -80.25 01/29/2014 18:13:30 49.71, -81.85 118.65 237
4 01/29/2014 19:56:20 49.99,-104.97 01/29/2014 19:54:58 49.60,-107.17 163.87 82
5 01/29/2014 21:30:23 32.68,-123.91 01/29/2014 21:31:27 32.14,-126.43 244.15 64
6 02/01/2014 07:46:09 20.02, -89.56 02/01/2014 07:38:18 20.00, -89.39 17.32 471
7 02/01/2014 09:22:03 30.80,-111.62 02/01/2014 09:16:42 30.89,-111.92 30.99 321




NCC Satellite Simultaneous Nadir Overpasses (SNOs) Prediction Service
